Regional Weather Roundup
Issued by NWS

Home | Current Version | Previous Version | Graphics & Text | Print | Product List | Glossary On
Versions: 1 2 3 4 5 6 7 8 9 10 11 12 13 14 15 16 17 18 19 20 21 22 23 24 25 26 27 28 29 30 31 32 33 34 35 36 37 38 39 40 41 42 43 44 45 46 47 48 49 50
000
ASUS45 KPSR 311710
RWRAZ

ARIZONA HOURLY REGIONAL WEATHER ROUNDUP
NATIONAL WEATHER SERVICE PHOENIX AZ
1000 AM MST MON AUG 31 2015

NOTE: FAIR INDICATES FEW OR NO CLOUDS BELOW 12,000 FEET WITH NO
SIGNIFICANT WEATHER AND/OR OBSTRUCTIONS TO VISIBILITY.

AZZ001>003-036-311800-
NORTHWEST ARIZONA

CITY           SKY/WX    TMP DP  RH WIND       PRES   REMARKS
BULLHEAD CITY  SUNNY     95  45  17 S7        29.84R
KINGMAN        MOSUNNY   89  40  17 VRB3      30.03R
$$

AZZ004>008-015-016-018-311800-
NORTH CENTRAL ARIZONA

CITY           SKY/WX    TMP DP  RH WIND       PRES   REMARKS
GRAND CANYON   PTSUNNY   68  55  63 SE5       30.30R
WILLIAMS       MOSUNNY   72  52  49 SE6G13    30.34S
PRESCOTT       MOSUNNY   79  57  46 SE12      30.18R
FLAGSTAFF      SUNNY     69  56  62 SW8       30.34R
PAYSON         MOSUNNY   81  55  41 VRB5      30.22S
PAGE           PTSUNNY   75  59  57 NE5       30.15R
$$

AZZ009>014-017-311800-
NORTHEAST ARIZONA

CITY           SKY/WX    TMP DP  RH WIND       PRES   REMARKS
WINSLOW        PTSUNNY   75  60  59 E8        30.19S
SAINT JOHNS    PTSUNNY   75  54  47 NW6       30.24S
WINDOW ROCK    MOSUNNY   76  49  38 VRB7      30.31F
SHOW LOW       PTSUNNY   70  52  52 S12       30.31S
$$

AZZ023-311800-
GREATER PHOENIX AREA

CITY           SKY/WX    TMP DP  RH WIND       PRES   REMARKS
PHOENIX        MOSUNNY   95  64  35 S9        29.89S
BUCKEYE        SUNNY     95  64  36 E12       29.89R
GLENDALE       MOSUNNY   97  63  32 E6        29.90S
LUKE AFB       SUNNY     95  64  36 NE2       29.88S
DEER VALLEY    SUNNY     93  61  34 SE9       29.91S
SCOTTSDALE     SUNNY     93  61  34 VRB6      29.93S
MESA-FALCON    PTSUNNY   93  59  31 SE12      29.91S
MESA-GATEWAY   MOSUNNY   91  63  38 SE7       29.94R
CHANDLER       MOSUNNY   93  64  38 SE9       29.91S
$$

AZZ027-028-311800-
SOUTHWEST MARICOPA COUNTY AND PINAL COUNTY

CITY           SKY/WX    TMP DP  RH WIND       PRES   REMARKS
CASA GRANDE    SUNNY     93  61  33 CALM      29.92S
GILA BEND      MOSUNNY   99  59  26 S12       29.85R
$$

AZZ503-504-507>509-311800-
SOUTHEAST ARIZONA

CITY           SKY/WX    TMP DP  RH WIND       PRES   REMARKS
TUCSON         SUNNY     91  58  32 VRB7      30.04S
DAVIS-MONTHAN  SUNNY     89  60  36 S5        30.02S
RYAN FIELD     SUNNY     91  63  38 E6        30.02
NOGALES        SUNNY     83  59  44 E3        30.12S
SIERRA VISTA   SUNNY     82  57  42 VRB5      30.19R
DOUGLAS        SUNNY     79  60  52 VRB6      30.14S
SAFFORD        SUNNY     87  58  37 NW13      30.05F
$$

AZZ020-021-025-026-031-311800-
SOUTHWEST ARIZONA

CITY           SKY/WX    TMP DP  RH WIND       PRES   REMARKS
YUMA           PTSUNNY   96  69  41 S12       29.80R HX 102
$$

CAZ031-033-041-043-047-048-061-311800-
SOUTHERN CALIFORNIA

CITY           SKY/WX    TMP DP  RH WIND       PRES   REMARKS
DOWNTOWN L.A.  MOSUNNY   77  63  61 VRB5      29.91R
L.A. AIRPORT   PTSUNNY   72  64  76 E8        29.92R
SAN DIEGO      PTSUNNY   72  61  68 S9        29.94R
BURBANK        SUNNY     74  63  68 SE5       29.92R
ONTARIO        MOSUNNY   75  63  66 W7        29.92R
RIVERSIDE      SUNNY     76  62  62 VRB5      29.92R
PALM SPRINGS   MOSUNNY   94  49  21 CALM      29.82R
EL CENTRO NAS  PTSUNNY   97  45  16 VRB3      29.80R
IMPERIAL       MOSUNNY   97  48  18 CALM      29.78R
BLYTHE         SUNNY     97  50  20 NW5       29.81S
NEEDLES        SUNNY     97  42  15 CALM      29.84R
$$

NVZ020-UTZ003-311800-
SOUTHERN NEVADA-UTAH

CITY           SKY/WX    TMP DP  RH WIND       PRES   REMARKS
LAS VEGAS      MOSUNNY   91  42  18 NE3       29.87S
SALT LAKE CITY MOSUNNY   76  41  28 W6        30.09S
$$

NMZ009-TXZ055-311800-
NEW MEXICO-WEST TEXAS

CITY           SKY/WX    TMP DP  RH WIND       PRES   REMARKS
ALBUQUERQUE    MOSUNNY   81  49  32 NE5       30.21S
EL PASO        SUNNY     84  50  30 S7        30.10R
$$


........................KEY........................
SKY/WX - SKY CONDITION/WEATHER
TMP    - TEMPERATURE IN FAHRENHEIT
DP     - DEW POINT IN FAHRENHEIT
RH     - RELATIVE HUMIDITY IN PERCENT
WIND   - DIRECTION AND SPEED IN MILES PER HOUR (MPH)
VRB    - VARIABLE WIND DIRECTION
PRES   - MEAN SEA LEVEL PRESSURE IN INCHES OF MERCURY
         F - FALLING PRESSURE   R - RISING PRESSURE
         S - STEADY PRESSURE
VSB    - VISIBILITY IN MILES
HX     - HEAT INDEX IN FAHRENHEIT
WCI    - WIND CHILL INDEX IN FAHRENHEIT
TC     - TEMPERATURE IN CELSIUS WHICH IS ALSO KNOWN AS
         TEMPERATURE IN CENTIGRADE
AFB    - AIR FORCE BASE
         LUKE AFB IS LUKE AIR FORCE BASE
         DAVIS-MONTHAN IS DAVIS-MONTHAN AIR FORCE BASE
NAS    - NAVAL AIR STATION
         EL CENTRO NAS IS EL CENTRO NAVAL AIR STATION
N/A    - NOT AVAILABLE




USA.gov is the U.S. government's official web portal to all federal, state and local government web resources and services.